This demonstration page uses our WeatherBlox Daily Observations layout. Learn more.

Hourly Observations for March 14, 2018

Temp ( °F °C ) Dew Point ( °F °C ) Humidity (%) Winds ( mph kmh ) Pressure ( in mb ) Visibility ( mi km ) Precip ( " mm )
12:15 am 00:15 Clear 32 0 27 -3 80 80 W 9 15 29.91 1013 10 16.09344 0 0
12:35 am 00:35 Clear 32 0 27 -3 80 80 WNW 10 17 29.91 1013 10 16.09344 0 0
12:55 am 00:55 Clear 32 0 27 -3 80 80 WNW 13 20 29.91 1013 10 16.09344 0 0
1:15 am 01:15 Clear 32 0 25 -4 75 75 WNW 13 20 29.91 1013 10 16.09344 0 0
1:35 am 01:35 Clear 32 0 25 -4 75 75 WNW 13 20 29.91 1013 10 16.09344 0 0
1:55 am 01:55 Clear 32 0 25 -4 75 75 WNW 13 20 29.91 1013 10 16.09344 0 0
2:15 am 02:15 Clear 32 0 23 -5 69 69 WNW 15 24 29.91 1013 10 16.09344 0 0
2:35 am 02:35 Clear 32 0 23 -5 69 69 WNW 13 20 29.91 1013 10 16.09344 0 0
2:55 am 02:55 Clear 32 0 23 -5 69 69 WNW 10 17 29.88 1012 10 16.09344 0 0
3:15 am 03:15 Clear 32 0 23 -5 69 69 WNW 14 22 29.88 1012 10 16.09344 0 0
3:35 am 03:35 Clear 32 0 21 -6 64 64 WNW 9 15 29.88 1012 10 16.09344 0 0
3:55 am 03:55 Clear 32 0 21 -6 64 64 WNW 12 19 29.85 1011 10 16.09344 0 0
4:15 am 04:15 Clear 32 0 23 -5 69 69 W 9 15 29.85 1011 10 16.09344 0 0
4:35 am 04:35 Clear 32 0 23 -5 69 69 W 8 13 29.85 1011 10 16.09344 0 0
4:55 am 04:55 Clear 30 -1 21 -6 69 69 W 3 6 29.85 1011 10 16.09344 0 0
5:15 am 05:15 Clear 30 -1 23 -5 75 75 W 7 11 29.85 1011 10 16.09344 0 0
5:35 am 05:35 Clear 30 -1 23 -5 75 75 W 6 9 29.85 1011 10 16.09344 0 0
5:55 am 05:55 Clear 28 -2 23 -5 80 80 W 8 13 29.85 1011 10 16.09344 0 0
6:15 am 06:15 Clear 32 0 23 -5 69 69 W 9 15 29.85 1011 10 16.09344 0 0
6:35 am 06:35 Clear 32 0 21 -6 64 64 W 9 15 29.85 1011 10 16.09344 0 0
6:55 am 06:55 Clear 30 -1 21 -6 69 69 W 13 20 29.85 1011 10 16.09344 0 0
7:15 am 07:15 Clear 30 -1 21 -6 69 69 WNW 12 19 29.85 1011 10 16.09344 0 0
7:35 am 07:35 Sunny 30 -1 21 -6 69 69 WNW 13 20 29.88 1012 10 16.09344 0 0
7:55 am 07:55 Sunny 30 -1 21 -6 69 69 W 10 17 29.88 1012 10 16.09344 0 0
8:15 am 08:15 Sunny 32 0 21 -6 64 64 WNW 8 13 29.88 1012 10 16.09344 0 0
8:35 am 08:35 Sunny 32 0 21 -6 64 64 WNW 18 30 29.88 1012 10 16.09344 0 0
8:55 am 08:55 Sunny 32 0 21 -6 64 64 WNW 16 26 29.88 1012 10 16.09344 0 0
9:15 am 09:15 Sunny 34 1 21 -6 60 60 WNW 21 33 29.88 1012 10 16.09344 0 0
9:35 am 09:35 Sunny 34 1 19 -7 56 56 WNW 24 39 29.88 1012 10 16.09344 0 0
9:55 am 09:55 Partly Cloudy 36 2 21 -6 56 56 WNW 18 30 29.88 1012 10 16.09344 0 0
10:15 am 10:15 Partly Cloudy 36 2 19 -7 52 52 WNW 20 31 29.85 1011 10 16.09344 0 0
10:35 am 10:35 Partly Cloudy 37 3 19 -7 48 48 NW 22 35 29.85 1011 10 16.09344 0 0
10:55 am 10:55 Mostly Cloudy 37 3 19 -7 48 48 WNW 24 39 29.85 1011 10 16.09344 0 0
11:15 am 11:15 Cloudy 37 3 19 -7 48 48 NW 26 43 29.83 1010 10 16.09344 0 0
11:35 am 11:35 Cloudy 37 3 19 -7 48 48 WNW 29 46 29.85 1011 10 16.09344 0 0
11:55 am 11:55 Cloudy 37 3 21 -6 52 52 NW 23 37 29.85 1011 10 16.09344 0 0
12:15 pm 12:15 Cloudy 37 3 21 -6 52 52 NW 21 33 29.85 1011 10 16.09344 0 0
12:35 pm 12:35 Cloudy 37 3 21 -6 52 52 WNW 28 44 29.85 1011 10 16.09344 0 0
12:55 pm 12:55 Cloudy 37 3 19 -7 48 48 WNW 25 41 29.85 1011 10 16.09344 0 0
1:15 pm 13:15 Cloudy 37 3 19 -7 48 48 NNW 15 24 29.83 1010 10 16.09344 0 0
1:35 pm 13:35 Cloudy 37 3 19 -7 48 48 WNW 20 31 29.83 1010 10 16.09344 0 0
1:55 pm 13:55 Cloudy 39 4 19 -7 45 45 WNW 23 37 29.83 1010 10 16.09344 0 0
2:15 pm 14:15 Cloudy 41 5 19 -7 42 42 WNW 22 35 29.8 1009 10 16.09344 0 0
2:35 pm 14:35 Partly Cloudy 41 5 19 -7 42 42 WNW 22 35 29.8 1009 10 16.09344 0 0
2:55 pm 14:55 Mostly Cloudy 41 5 19 -7 42 42 NW 23 37 29.8 1009 10 16.09344 0 0
3:15 pm 15:15 Partly Cloudy 41 5 19 -7 42 42 WNW 31 50 29.8 1009 10 16.09344 0 0
3:35 pm 15:35 Partly Cloudy 41 5 19 -7 42 42 WNW 23 37 29.8 1009 10 16.09344 0 0
3:55 pm 15:55 Partly Cloudy 41 5 18 -8 39 39 WNW 24 39 29.8 1009 10 16.09344 0 0
4:15 pm 16:15 Mostly Cloudy 39 4 19 -7 45 45 NW 23 37 29.8 1009 10 16.09344 0 0
4:35 pm 16:35 Mostly Cloudy 39 4 19 -7 45 45 WNW 26 43 29.8 1009 10 16.09344 0 0
4:55 pm 16:55 Mostly Cloudy 39 4 19 -7 45 45 WNW 21 33 29.8 1009 10 16.09344 0 0
5:15 pm 17:15 Mostly Cloudy 37 3 19 -7 48 48 WNW 23 37 29.8 1009 10 16.09344 0 0
5:35 pm 17:35 Mostly Cloudy 37 3 19 -7 48 48 WNW 29 46 29.8 1009 10 16.09344 0 0
5:55 pm 17:55 Partly Cloudy 37 3 19 -7 48 48 WNW 26 43 29.8 1009 10 16.09344 0 0
6:15 pm 18:15 Mostly Cloudy 37 3 19 -7 48 48 WNW 26 43 29.8 1009 10 16.09344 0 0
6:35 pm 18:35 Cloudy 37 3 19 -7 48 48 WNW 25 41 29.83 1010 10 16.09344 0 0
6:55 pm 18:55 Cloudy 36 2 19 -7 52 52 WNW 20 31 29.83 1010 10 16.09344 0 0
7:15 pm 19:15 Cloudy 36 2 19 -7 52 52 WNW 15 24 29.83 1010 10 16.09344 0 0
7:35 pm 19:35 Cloudy 36 2 19 -7 52 52 NW 22 35 29.83 1010 10 16.09344 0 0
7:55 pm 19:55 Cloudy 36 2 19 -7 52 52 WNW 14 22 29.85 1011 10 16.09344 0 0
8:15 pm 20:15 Cloudy 36 2 19 -7 52 52 WNW 23 37 29.85 1011 10 16.09344 0 0
8:35 pm 20:35 Cloudy 36 2 21 -6 56 56 WNW 15 24 29.85 1011 10 16.09344 0 0
8:55 pm 20:55 Cloudy 36 2 21 -6 56 56 WNW 17 28 29.85 1011 10 16.09344 0 0
9:15 pm 21:15 Cloudy 36 2 21 -6 56 56 WNW 15 24 29.88 1012 10 16.09344 0 0
9:35 pm 21:35 Cloudy 36 2 21 -6 56 56 WNW 17 28 29.88 1012 10 16.09344 0 0
9:55 pm 21:55 Cloudy 36 2 21 -6 56 56 WNW 18 30 29.88 1012 10 16.09344 0 0
10:15 pm 22:15 Cloudy 36 2 19 -7 52 52 NW 17 28 29.88 1012 10 16.09344 0 0
10:35 pm 22:35 Cloudy 36 2 19 -7 52 52 WNW 17 28 29.88 1012 10 16.09344 0 0
10:55 pm 22:55 Cloudy 34 1 19 -7 56 56 WNW 20 31 29.88 1012 10 16.09344 0 0
11:15 pm 23:15 Cloudy 34 1 19 -7 56 56 WNW 13 20 29.88 1012 10 16.09344 0 0
11:35 pm 23:35 Cloudy 34 1 19 -7 56 56 WNW 15 24 29.88 1012 10 16.09344 0 0
11:55 pm 23:55 Cloudy 36 2 19 -7 52 52 WNW 15 24 29.88 1012 10 16.09344 0 0

Powered by AerisWeather